Location: Newark
(13.6797°N, 8.5297°E)
Time: 01:10:47
(UTC+00:00)

Courier 1B Rocket - Pass Details

Date: 21 January 2020
Orbit: 920 x 1202 km, 28.2° (Epoch: 27 February)

Event Time Altitude Azimuth Distance (km) Brightness Sun altitude
Rises 18:41:40 0° 295° (WNW) 3,545 8.7 -19.5°
Reaches altitude 10° 18:44:15 10° 295° (WNW) 2,601 7.9 -20.1°
Maximum altitude 18:50:29 84° 209° (SSW) 935 4.9 -21.6°
Enters shadow 18:53:49 30° 121° (ESE) 1,607 5.8 -22.4°
